Tracking 35331 objects as of 15-Sep-2026
HD Live streaming from Space Station
objects crossing your sky now

SL-12 R/B(2)

Track SL-12 R/B(2) now!


NORAD ID: 23111
Int'l Code: 1994-030D
Launch date: May 20, 1994
Source: Commonwealth of Independent States (former USSR) (CIS)
Launch site: TYURATAM MISSILE AND SPACE COMPLEX (TTMTR)

Note: This is a ROCKET BODY
Your satellite tracking list
Your tracking list is empty




NASA's NSSDC Master Catalog

Two Line Element Set (TLE):
1 23111U 94030D   26243.96216296 -.00000054  00000-0  00000+0 0  9991
2 23111  12.5501 342.4722 0045169 195.9311 155.6957  1.03837721122445
Source of the keplerian elements: AFSPC